Regional Weather Roundup
Issued by NWS Wakefield, VA

Home | Current Version | Previous Version | Graphics & Text | Print | Product List | Glossary On
Versions: 1 2 3 4 5 6 7 8 9 10 11 12 13 14 15 16 17 18 19 20 21 22 23 24 25 26 27 28 29 30 31 32 33 34 35 36 37 38 39 40 41 42 43 44 45 46 47 48 49 50
000
ASUS41 KAKQ 200513
RWRAKQ

REGIONAL WEATHER ROUNDUP
NATIONAL WEATHER SERVICE WAKEFIELD VA
1200 AM EST MON NOV 20 2017

Note: "fair" indicates few or no clouds below 12,000 feet with no
significant weather and/or obstructions to visibility. * = Denotes
station may not report precipitation (e.g., rain,snow,etc.),
thunder or fog.

VAZ042-051-052>054-056-200600-
NORTHERN VIRGINIA

CITY           SKY/WX    TMP DP  RH WIND       PRES   REMARKS
WASH NATIONAL  MOCLDY    43  28  55 NW6       29.98R
DULLES         MOCLDY    41  28  60 NW8       29.97R
FORT BELVOIR   CLOUDY    44  27  51 NW8       29.98R
QUANTICO       NOT AVBL
FREDERICKSBRG* PTCLDY    40  27  59 SW5       29.99R
STAFFORD*      PTCLDY    40  23  49 W10       30.02R
WARRENTON      NOT AVBL
CULPEPER*      PTCLDY    43  20  39 W8        30.00R
MANASSAS*      PTCLDY    43  24  47 NW12      29.98R
LEESBURG*      CLOUDY    41  32  70 NW8       29.98R
WINCHESTER     CLOUDY    37  25  60 W16G24    29.97R
FRONT ROYAL*   MOCLDY    41  21  45 W8G25     29.97R
LURAY*         PTCLDY    39  25  56 W9        29.98R
$$

VAZ048-049-060>072-079>083-200600-
CENTRAL AND SOUTH CENTRAL VIRGINIA

CITY           SKY/WX    TMP DP  RH WIND       PRES   REMARKS
RICHMOND       PTCLDY    39  26  59 SW7       30.01R
CHESTERFIELD*  NOT AVBL
PETERSBURG*    NOT AVBL
HANOVER        CLEAR     39  25  57 SW5       30.02R
TAPPAHANNOCK*    N/A    N/A N/A N/A MISG        N/A
QUINTON*       FAIR      38  28  66 CALM      30.01R
CHARLOTTSVILLE CLEAR     41  23  48 CALM      29.99R
GORDONSVILLE*  CLOUDY    40  26  56 CALM      29.99R
ORANGE*        CLEAR     34  25  69 CALM      29.99R
LOUISA*          N/A     37  23  58 S5          N/A
BUMPASS*       FAIR      35  24  65 SW3       29.99R
FARMVILLE*     CLEAR     31  28  89 SW3       30.02R
CREWE*         FAIR      36  26  66 CALM      30.02S
FORT PICKETT*  NOT AVBL
CHASE CITY*    FAIR      31  27  85 CALM      30.05R
CLARKSVILLE*   FAIR      32  28  86 CALM      30.05S
SOUTH HILL*    CLEAR     35  26  71 SW3       30.10S
LAWRENCEVILLE* FAIR      33  25  73 CALM      30.05R
EMPORIA*       CLEAR     36  27  69 SW5       30.06S
$$

VAZ088>098-200600-
SOUTHEAST VIRGINIA

CITY           SKY/WX    TMP DP  RH WIND       PRES   REMARKS
NORFOLK        CLEAR     47  25  42 NW5       30.02R
VIRGINIA BEACH NOT AVBL
NORFOLK NAVAL  NOT AVBL
WEST POINT*    CLEAR     41  25  52 W6        30.02R
SALUDA*        FAIR      41  24  51 SW3       30.00R
NEWPORT NEWS   CLEAR     43  25  49 NW6       30.02R
LANGLEY AFB    CLEAR     42  25  51 W7        30.01R
FORT EUSTIS    CLEAR     43  29  56 W5        30.00R
WILLIAMSBURG*  CLEAR     41  28  60 CALM      30.03R
HR EXEC AP*    NOT AVBL
FRANKLIN*      CLEAR     38  27  63 W3        30.05R
US460-WAKEFLD  CLEAR     34  28  79 CALM      30.03R
$$

VAZ020-022-025-037-045-200600-
WEST CENTRAL AND SOUTHWEST VIRGINIA

CITY           SKY/WX    TMP DP  RH WIND       PRES   REMARKS
STAUNTON*      CLEAR     36  19  51 W5        30.01R
WAYNESBORO*    CLEAR     37  19  49 NW8G16    29.98R
HOT SPRINGS VA CLOUDY    27  19  71 W22G31    29.92R WCI  13
LYNCHBURG      CLEAR     38  23  55 VRB7      30.02R
DANVILLE       CLEAR     31  24  75 SW3       30.07R
SOUTH BOSTON*  FAIR      28  24  84 W3        30.06R
MARTINSVILLE   CLEAR     34  23  65 CALM      30.09R
ROANOKE        CLEAR     38  22  52 W10G20    30.07R
BLACKSBURG     PTCLDY    34  25  68 W8G21     30.07R
DUBLIN*        PTCLDY    35  24  65 W12       30.08R
MARION*        MOCLDY    32  22  67 W15G21    30.09R WCI  22
HILLSVILLE*    CLOUDY    32  24  72 W13       30.04R WCI  22
RICHLANDS*     CLOUDY    29  23  78 W7        30.12R
WISE*          CLEAR     30  27  86 NW6       30.13S
ABINGDON*      CLEAR     32  27  83 W6        30.15R
$$

MDZ021>025-VAZ099-100-200600-
SOUTHERN MARYLAND AND THE DELMARVA PENINSULA

CITY           SKY/WX    TMP DP  RH WIND       PRES   REMARKS
PATUXENT RIVER NOT AVBL
BAY BRIDGE APT CLOUDY    45  30  57 W10G17    29.96R
LEONARDTOWN    CLOUDY    41  28  60 CALM      29.99R
DOVER          MOCLDY    40  26  57 W10       29.92R
GEORGETOWN     MOCLDY    41  27  57 W3        29.95R
EASTON         MOCLDY    45  28  49 NW9       29.99R
CAMBRIDGE      CLOUDY    45  27  49 W9        29.96R
SALISBURY      CLEAR     42  29  59 W8        29.96R
OCEAN CITY     CLEAR     39  28  64 W6        29.96R
WALLOPS ISLAND MOCLDY    41  30  65 W3        29.98R
ACCOMACK*      PTCLDY    46  29  51 W13       29.98R
$$

NCZ012>017-030>032-200600-
NORTH CENTRAL AND EASTERN NORTH CAROLINA

CITY           SKY/WX    TMP DP  RH WIND       PRES   REMARKS
ROANOKE RAPIDS FAIR      37  28  70 W6        30.06R
RALEIGH        CLEAR     35  26  69 CALM      30.08R
ELIZABETH CITY CLEAR     40  32  73 W10       30.04R
AHOSKIE*       CLEAR     37  27  68 CALM      30.06R
EDENTON*       CLEAR     45  31  57 CALM      30.05R
CURRITUCK*     CLEAR     43  31  64 W6        30.03R
KILL DEVIL HLS CLEAR     47  32  56 NW9       30.00R
MANTEO         CLEAR     47  32  55 NW12G21   30.02R
CAPE HATTERAS  CLEAR     49  35  58 NW13G24   30.02R
TARBORO*       NOT AVBL
GOLDSBORO      CLEAR     42  27  55 CALM      30.08R
WASHINGTON     PTCLDY    42  28  58 CALM      30.07R
GREENVILLE     CLEAR     41  28  60 CALM      30.09R
NEW BERN       CLEAR     41  29  62 NW6       30.08R
WILMINGTON     PTCLDY    44  32  62 N3        30.10R
$$

VAZ048-200600-
ELSEWHERE

CITY           SKY/WX    TMP DP  RH WIND       PRES   REMARKS
HARRISBURG PA  PTCLDY    39  26  59 NW18G24   29.91R
BALTIMORE      MOCLDY    41  27  57 W18       29.95R
ANNAPOLIS      NOT AVBL
ANDREWS AFB    CLOUDY    43  26  52 NW10      29.96R
PHILADELPHIA   PTCLDY    40  25  55 W13       29.90R
HENDERSON NC   CLEAR     32  24  73 W3        30.06S
GREENSBORO     CLEAR     34  24  67 W5        30.06R
ROCKY MOUNT    CLEAR     37  28  70 CALM      30.08R
$$

VAZ100-200600-
MARINE

STATION/POSITION TIME  TEMP    WIND        PRES    WAVE   SWELL
                       AIR SEA DIR/SP/G            HT/PER HT/PER
                 (UTC) (F)     (DEG/KT/KT) (MB)    (FT/S) (FT/S)
BRANDYWINE LGT   0442   45     290/ 24/ 29 1013.4R
CAPE MAY NJ      0442   45 48  290/ 21/ 27 1012.4R
LEWES DE         0442   42 53  280/ 12/ 16 1013.6R
15NM E FENWICK I 0450   47 59  270/ 23/ 29 1013.2R   4/ 5   2/ 8
OCEAN-CITY-INLET 0442   43 55  280/  5/  7 1014.4R
WACHAPREAGUE VA  0442   45 51  260/  4/  7 1015.2R
THOMAS POINT MD  0500   44 53  290/ 18/ 20   N/A
GOOSES REEF MD   0450   46     310/ 19/ 29 1008.7R
COVE POINT MD    0442   44     310/  8/ 11 1015.5R
SOLOMONS ISLAND  0442   45 54  270/  5/  7 1014.6R
BISHOPS HEAD MD  0442   42 48  320/  9/ 12 1015.2R
PINEY POINT MD   0442          290/ 10/ 11   N/A
POTOMAC MD       0450   47     290/ 12/ 16 1014.8R
CAMBRIDGE MD     0442   45 50              1015.0R
LEWISETTA VA     0442   43 51  260/  6/  7 1015.3R
RAPPAHANNOCK LGT 0442          280/ 20/ 24 1015.9R
STINGRAY PT      0450   46     300/ 12/ 14 1015.8R
YORK RVR RNG VA  0442   46     310/ 13/ 15 1016.5R
YORKTOWN VA      0442   45 55  280/  9/ 12 1015.9R
JAMESTOWN VA     0450          270/  8/ 10   N/A
DOMINION TERM VA 0442   46     290/ 12/ 14 1016.5R
KIPTOPEKE VA     0442      55  320/ 23/ 26   N/A
CAPE HENRY VA    0442   48     300/ 17/ 23   N/A
WILLOUBY STN VA  0442   47     310/ 15/ 17 1016.2R
S CRANEY ISL VA  0442   45     270/  5/  8 1016.2R
CAPE HENRY BUOY  0500      60                N/A     4/ 4
1ST LANDING BUOY 0450   48     320/ 19/ 23 1016.0R
CAPE CHARLES BUO 0451      58                N/A     4/ 3
64NM E OF VA BCH 0450   52 61  330/ 19/ 25 1015.0R   8/ 7
DUCK PIER NC     0442   47 60  300/ 15/ 18 1015.7R
44100 DUCK FRF   0445      61                N/A     5/ 6
44056 DUCK FRF   0500      61                N/A     4/ 6
OREGON INLET NC  0442   49 58  300/ 15/ 18 1015.9R
HATTERAS NC      0442   50 61  320/ 24/ 26 1016.2R
DIAMOND SHLS NC  0450   54 69  320/ 23/ 27 1016.3R   6/ 8   2/13
CAPE LOOKOUT NC  0500          330/ 20/ 23 1018.2R
$$



USA.gov is the U.S. government's official web portal to all federal, state and local government web resources and services.